Location: Benton Park
(38.0598°N, 88.9148°W)
Time: 04:48:38
(UTC+00:00)

Daily predictions for brighter satellites

Satellite Brightness Start Highest point End
(mag) Time Altitude Azimuth Time Altitude Azimuth Time Altitude Azimuth
Cosmos 2221 Rocket 3.6 01:44:43 10° S 01:49:10 85° E 01:53:38 10° N
Okean 2 Rocket 3.2 01:47:51 10° N 01:52:20 66° E 01:56:49 10° SSE
Nadezhda 3 Rocket 4.5 01:49:15 10° SSW 01:55:21 66° W 02:01:29 10° N
Cosmos 2285 Rocket 4.3 01:49:32 10° S 01:55:38 48° ESE 02:01:46 10° NNE
FALCON 9 DEB 4.1 01:53:08 10° S 01:56:01 25° SE 01:58:55 10° ENE
Cosmos 1400 Rocket 2.7 01:54:41 10° N 01:58:34 73° E 02:02:24 10° SSE
Cosmos 1452 Rocket 4.5 01:55:03 10° SSE 01:59:25 27° E 02:03:49 10° NE
Resurs 01 Rocket 2.5 01:56:49 10° SE 02:00:45 33° ENE 02:04:41 10° N
Cosmos 2263 Rocket 2.7 01:55:47 10° N 02:01:18 48° ENE 02:06:47 10° SE
Cosmos 2151 Rocket 3.6 01:57:35 10° N 02:01:57 65° E 02:06:18 10° SSE
Cosmos 2056 Rocket 3.6 01:59:20 10° SSW 02:04:29 83° WNW 02:09:47 10° NNE
IGS 5A 4.3 02:02:06 10° SE 02:05:50 33° ENE 02:09:36 10° N
Cosmos 2227 Rocket 4.3 02:03:37 10° NW 02:08:01 24° W 02:12:24 10° SSW
Lacrosse 5 3.1 02:04:18 10° NNW 02:08:51 32° NE 02:13:23 10° E
Cosmos 407 Rocket 3.7 02:07:57 10° NNW 02:13:16 76° WSW 02:18:28 10° S
Cosmos 1842 3.5 02:13:47 10° SSW 02:17:42 73° W 02:21:39 10° N
Cosmos 1339 Rocket 4.5 02:11:50 10° S 02:18:02 81° E 02:24:12 10° N
ERS-2 3.7 02:15:06 10° N 02:18:32 39° WNW 02:21:56 10° SW
Cosmos 1674 Rocket 3.7 02:15:54 10° S 02:20:19 80° W 02:24:43 10° N
Cosmos 1420 Rocket 4.0 02:17:40 10° SSW 02:22:50 89° WNW 02:28:04 10° NNE
Cosmos 1190 Rocket 4.1 02:20:20 10° NNW 02:25:39 80° WSW 02:30:55 10° SSE
Cosmos 1766 4.5 02:24:02 10° NNW 02:27:40 40° W 02:31:17 10° SSW
Genesis I 3.7 02:24:07 10° SW 02:27:53 62° WNW 02:31:46 10° NNE
Cosmos 2219 Rocket 4.1 02:29:35 11° ESE 02:30:07 11° E 02:31:31 10° E
Landsat 7 3.9 02:29:04 14° SSE 02:33:04 63° ENE 02:37:46 10° N
NOSS 3-2 (C) 4.0 02:31:15 10° SW 02:36:40 59° NW 02:42:51 10° NNE
SPOT 3 Rocket 3.5 02:33:59 14° SSE 02:38:22 73° ENE 02:43:33 10° N
ARIANE 5 R/B 4.0 02:36:14 17° ESE 02:38:33 25° ENE 02:42:13 10° NNE
Cosmos 1470 2.7 02:34:54 10° N 02:38:53 81° E 02:41:53 17° S
Cosmos 1674 3.6 02:41:22 23° SE 02:42:45 30° E 02:46:01 10° NNE
ATLAS 3B R/B 3.5 02:39:16 16° SSE 02:42:52 25° ESE 02:48:06 10° ENE
CZ-2C R/B 3.7 02:42:30 10° NNE 02:47:17 74° ESE 02:52:02 10° S
SL-16 R/B 2.5 02:44:25 10° SSW 02:50:04 71° WNW 02:55:44 10° NNE
Cosmos 1315 Rocket 2.8 02:46:38 10° N 02:50:47 88° W 02:53:30 21° S
Cosmos 2360 Rocket 2.4 02:45:55 10° S 02:51:20 51° ESE 02:56:47 10° NNE
Cosmos 2322 Rocket 2.2 02:47:00 10° SSW 02:52:43 87° WNW 02:58:27 10° NNE
Ariane Rocket 4.3 02:51:50 10° SSW 02:56:31 37° W 03:01:14 10° NNW
Cosmos 676 Rocket 4.3 02:53:03 10° NNW 02:58:22 68° WSW 03:02:12 19° S
Cosmos 1954 Rocket 4.3 02:53:53 10° NNW 02:59:09 65° WSW 03:03:00 19° S
Okean 1 Rocket 3.6 02:56:34 10° NNW 03:00:51 57° W 03:04:14 16° S
Cosmos 1726 2.8 02:58:19 10° NNW 03:01:50 48° W 03:04:15 18° SSW
Cosmos 1455 Rocket 3.6 02:59:33 10° N 03:03:48 43° E 03:05:24 31° SE
Meteor 1-16 Rocket 4.5 02:59:41 10° N 03:04:57 48° ENE 03:07:26 28° SE
Cosmos 2100 Rocket 4.3 02:59:23 10° N 03:05:36 52° E 03:08:59 26° SE
COSMOS 2428 4.0 03:06:54 20° ESE 03:07:12 20° E 03:11:16 10° NE
Cosmos 1758 3.5 03:05:20 10° NNW 03:09:17 68° W 03:11:21 27° S
Cosmos 2322 4.4 03:08:15 28° SE 03:09:45 32° ESE 03:14:41 10° NE
BREEZE-M DEB (TANK) 4.1 03:08:00 10° NNW 03:10:16 18° NNE 03:11:14 14° NE
Cosmos 1340 4.1 03:10:39 22° E 03:10:39 22° E 03:13:19 10° NE
USA 215 3.6 03:04:52 10° ENE 03:10:56 40° SE 03:16:58 10° SSW
USA 81 4.1 03:06:54 10° N 03:12:11 77° W 03:15:43 21° S
Cosmos 2237 4.2 03:06:37 10° SSW 03:12:19 84° WNW 03:18:03 10° NNE
Cosmos 1908 3.7 03:10:24 10° N 03:14:07 43° E 03:14:50 39° ESE
Lacrosse 5 rocket 0.8 03:11:06 10° SW 03:14:50 74° SE 03:18:26 10° NE
Cosmos 1707 4.5 03:14:40 10° SW 03:18:07 31° WNW 03:21:35 10° NNW
Cosmos 1110 Rocket 3.9 03:15:27 20° S 03:19:04 74° ESE 03:24:16 10° NNE
Cosmos 2173 Rocket 4.0 03:18:29 10° N 03:24:52 70° E 03:27:59 32° SSE
Cosmos 1536 Rocket 4.4 03:26:46 33° E 03:27:04 33° E 03:31:05 10° NNE
Cosmos 2016 Rocket 4.4 03:21:53 10° N 03:27:43 46° E 03:29:58 33° SE
SPOT 5 3.0 03:30:02 39° SSE 03:31:58 72° ENE 03:36:58 10° N
Cosmos 1844 Rocket 3.0 03:26:37 10° NNW 03:32:13 56° ENE 03:34:17 36° ESE
Meteor 2-5 Rocket 4.3 03:32:04 34° ESE 03:33:12 38° E 03:38:18 10° NNE
Cosmos 1953 2.3 03:32:57 10° N 03:37:01 80° W 03:37:53 53° S
Resurs 01 Rocket 3.8 03:34:02 10° SW 03:37:16 20° W 03:40:31 10° NW
Cosmos 1025 Rocket 2.9 03:37:24 45° S 03:38:43 89° W 03:43:08 10° N
SL-14 R/B 3.4 03:39:12 55° ESE 03:39:19 55° E 03:43:16 10° NNE
Cosmos 1725 Rocket 4.3 03:33:21 10° N 03:39:20 49° E 03:41:21 36° SE
CARTOSAT-1 3.9 03:39:24 40° SSW 03:40:43 60° W 03:45:01 10° NNW
Terra 1.9 03:41:40 48° SE 03:42:45 63° ENE 03:47:28 10° N
Cosmos 2263 Rocket 4.1 03:40:35 10° NW 03:44:49 22° W 03:48:33 12° SW
Cosmos 1626 2.2 03:45:06 61° SW 03:45:33 70° W 03:49:14 10° N
Cosmos 2333 4.1 03:45:22 28° SSW 03:48:34 85° ESE 03:54:20 10° NNE
Lacrosse 5 2.5 03:47:07 10° NW 03:51:54 43° SW 03:52:53 38° SSW
Cosmos 1802 Rocket 4.0 03:46:31 10° N 03:52:49 90° SW 03:55:18 40° S
Cosmos 1850 Rocket 4.5 03:50:20 10° NNW 03:55:29 54° WSW 03:57:07 38° SSW
Cosmos 1461 2.7 03:52:04 10° NNW 03:56:14 76° ENE 03:56:20 75° ENE
Geosat 4.2 03:55:46 45° SSW 03:57:04 60° WSW 04:02:02 10° NNW
Cosmos 2333 Rocket 2.1 03:56:42 36° SSW 03:59:09 85° ESE 04:04:55 10° NNE
BREEZE-M DEB (TANK) 3.9 03:42:22 10° SW 04:00:32 69° SE 04:04:54 10° ENE
Spot 2 Rocket 4.5 03:58:36 27° SW 04:00:36 39° W 04:05:20 10° NNW
ERS-1 Rocket 3.5 04:04:36 40° SSW 04:06:00 52° W 04:10:56 10° NNW
Cosmos 1459 Rocket 4.5 04:04:15 10° NNW 04:10:05 51° W 04:12:39 31° SSW
ATLAS CENTAUR R/B 2.4 04:06:22 10° NNW 04:10:31 39° NE 04:10:56 38° ENE
SL-8 R/B 4.4 04:07:42 10° NW 04:12:21 49° NNE 04:13:41 38° ENE
Cosmos 2219 Rocket 2.1 04:11:14 43° SSW 04:13:12 86° WNW 04:18:54 10° NNE
ARIANE 5 R/B 4.2 04:13:45 24° WSW 04:14:53 27° W 04:18:40 10° NW
Cosmos 1844 3.6 04:11:16 10° NNW 04:16:51 76° WSW 04:17:50 60° S
Meteor 1-24 Rocket 3.4 04:19:34 67° S 04:20:18 83° E 04:25:44 10° N
Meteor 2-10 Rocket 3.9 04:17:19 10° N 04:22:11 46° ENE 04:22:19 46° E
Cosmos 1302 Rocket 4.3 04:23:10 40° SW 04:24:53 62° WNW 04:30:07 10° NNE
Uosat 12 SS-18 rocket 4.0 04:25:29 80° NNE 04:25:29 80° NNE 04:30:01 10° NNE
ATLAS CENTAUR R/B 4.1 04:26:30 26° E 04:26:30 26° E 04:32:16 10° NE
Cosmos 2061 Rocket 4.3 04:21:14 10° NNW 04:27:34 62° W 04:29:35 43° SSW
Cosmos 2237 Rocket 3.1 04:29:30 33° E 04:29:30 33° E 04:33:41 10° NE
Cosmos 1300 3.5 04:27:15 10° NNW 04:30:18 49° NW 04:30:18 49° NW
ATLAS 3B R/B 3.2 04:26:41 10° SW 04:33:03 55° NW 04:39:39 10° NNE
Cosmos 2360 Rocket 4.4 04:31:16 10° WSW 04:35:36 22° NW 04:39:58 10° N
Cosmos 1346 Rocket 3.6 04:41:09 49° N 04:41:09 49° N 04:44:09 10° N
ALOS 2 4.2 04:41:22 25° ENE 04:41:22 25° ENE 04:44:39 10° NNE
Cosmos 1606 Rocket 4.2 04:37:13 10° N 04:40:57 49° NE 04:40:57 49° NE
Cosmos 1447 Rocket 4.5 04:48:52 57° SSW 04:50:09 75° W 04:56:22 10° N
Cosmos 2233 Rocket 4.0 04:44:14 10° NNW 04:50:20 69° W 04:51:23 58° SW
COSMOS 2428 3.3 04:48:51 34° WSW 04:51:00 52° WNW 04:56:37 10° NNE
USA 215 3.8 04:47:40 10° NE 04:54:01 56° NW 05:00:21 10° WSW
Lacrosse 5 rocket 4.2 04:52:19 10° WNW 04:54:16 14° NNW 04:56:13 10° N
NOSS 0 Rocket 3.8 04:57:14 71° SSW 04:58:00 87° ESE 05:04:16 10° NNE
Cosmos 1486 Rocket 3.9 04:57:01 10° NNW 05:02:04 80° NNE 05:02:04 80° NNE
Cosmos 2278 Rocket 2.5 04:59:44 10° NNW 05:05:17 53° ENE 05:05:45 52° E
Cosmos 1992 Rocket 4.4 05:13:03 53° W 05:13:28 54° WNW 05:18:36 10° N
Cosmos 968 Rocket 3.9 05:08:58 10° NNW 05:13:30 54° W 05:13:30 54° W
Cosmos 1354 Rocket 4.5 05:10:13 10° N 05:15:26 52° ENE 05:15:27 52° ENE
GEOS 3 Rocket 3.6 05:20:24 75° W 05:20:24 75° W 05:25:31 10° NW
Terra 4.2 05:20:33 12° W 05:20:53 12° W 05:22:41 10° WNW
Nimbus 7 Rocket 4.5 05:17:04 10° NNE 05:23:04 64° ESE 05:23:07 64° ESE
USA 267 3.8 05:21:42 29° E 05:24:55 54° NE 05:31:15 10° NW
Cosmos 1464 Rocket 3.9 05:28:16 10° N 05:34:39 86° W 05:35:08 77° SSW
Okean 1-7 Rocket 4.3 05:35:55 51° N 05:35:55 51° N 05:39:19 10° N
Cosmos 2346 Rocket 4.3 05:37:59 76° SW 05:38:19 80° W 05:44:30 10° N
Meteor 2-1 Rocket 4.1 05:33:05 10° N 05:38:25 83° N 05:38:25 83° N
Cosmos 1980 4.1 05:37:59 51° W 05:38:39 54° WNW 05:44:14 10° NNE
Cosmos 1607 4.0 05:37:01 10° NNW 05:43:24 70° ENE 05:44:13 63° ESE
Cosmos 1943 Rocket 4.0 05:43:48 10° N 05:48:06 23° NE 05:50:14 18° E
ATLAS CENTAUR R/B 3.9 05:45:48 10° WNW 05:47:04 15° WNW 05:47:04 15° WNW
Cosmos 1816 Rocket 4.3 05:50:46 84° SSW 05:51:00 89° W 05:57:10 10° N
Cosmos 2058 Rocket 4.3 05:51:37 10° NNW 05:54:38 36° NW 05:54:38 36° NW
Resurs 1-4 Rocket 4.5 05:59:50 10° ENE 06:01:04 11° E 06:01:20 11° E
USA 32 4.1 06:01:20 10° N 06:06:09 72° NNE 06:06:09 72° NNE
SL-16 R/B 2.1 06:07:45 79° ENE 06:07:45 79° ENE 06:13:10 10° NNE
GP-B 3.9 06:03:28 10° N 06:06:48 50° NNE 06:06:48 50° NNE
Cosmos 2034 Rocket 4.0 06:02:04 10° NNW 06:08:11 66° W 06:08:22 66° WSW
USA 229 DEB 4.1 06:08:35 43° ESE 06:08:35 43° ESE 06:14:28 10° NE
USA 229 4.1 06:08:42 43° ESE 06:08:42 43° ESE 06:14:34 10° NE
CZ-2D R/B 4.3 06:08:06 10° ENE 06:10:21 13° E 06:10:33 13° E
Cosmos 2237 Rocket 3.5 06:11:17 27° W 06:12:41 30° WNW 06:17:37 10° N
NOSS 3-1 (C) 3.1 06:18:54 76° ENE 06:18:54 76° ENE 06:24:26 10° NE
Thor Agena Rocket 3.9 06:13:47 10° N 06:18:47 57° WNW 06:18:47 57° WNW
BREEZE-M DEB (TANK) 3.8 06:20:56 62° SSE 06:21:42 67° SE 06:40:56 10° NE
BREEZE M DEB (TANK) 3.8 06:22:37 65° S 06:23:19 71° SE 06:49:42 10° ENE
SJ 16-02 2.3 06:21:20 10° N 06:24:49 45° NNE 06:24:49 45° NNE
Cosmos 2369 Rocket 4.0 06:23:12 10° N 06:27:55 26° ENE 06:31:22 15° ESE
NOSS 3-1 (A) 3.6 06:28:32 50° E 06:28:32 50° E 06:33:36 10° NE
SL-4 R/B 4.1 06:27:29 21° NW 06:28:00 21° NNW 06:30:55 10° NNE
Tsikada Rocket 4.2 06:28:01 53° W 06:28:31 55° W 06:34:35 10° N
SL-16 R/B 4.4 06:26:24 11° ESE 06:30:39 22° ENE 06:35:15 10° NNE
Cosmos 1763 Rocket 4.2 06:35:28 42° E 06:35:28 42° E 06:39:47 10° NNE
Cosmos 724 4.3 06:34:41 10° NNW 06:40:52 79° ENE 06:41:42 66° ESE
Cosmos 1953 Rocket 4.2 06:46:59 51° NE 06:46:59 51° NE 06:50:28 10° NNE
CZ-4 R/B 4.1 06:42:00 10° NNE 06:46:04 59° ENE 06:46:04 59° ENE
Meteor 1-27 4.0 06:41:42 10° N 06:47:17 88° E 06:47:24 86° SE
Cosmos 2297 3.5 06:41:49 10° NNW 06:47:29 90° ENE 06:47:36 86° SSE
Cosmos 2278 Rocket 4.0 06:45:00 10° NW 06:47:35 18° W 06:47:35 18° W
Cosmos 1892 4.0 06:53:15 38° N 06:53:15 38° N 06:55:46 10° N
Helios 1A 3.6 06:59:24 55° NNE 06:59:24 55° NNE 07:02:56 10° N
Helios 1B rocket 4.0 07:02:59 10° NE 07:06:08 27° E 07:06:08 27° E
USA 267 3.8 07:09:00 39° WSW 07:09:00 39° WSW 07:14:05 10° WNW
NOSS 2-3 (D) 4.4 07:08:46 41° NW 07:08:46 41° NW 07:12:55 10° NNE
In-Cosmos 22 Rocket 4.3 07:11:54 57° W 07:12:16 59° W 07:17:44 10° N
Cosmos 841 Rocket 3.8 07:19:57 52° ESE 07:20:22 54° ESE 07:25:23 10° NNE
Cosmos 990 Rocket 3.9 07:16:28 10° NNW 07:21:40 80° ENE 07:22:18 68° SE
Cosmos 540 Rocket 3.4 07:22:33 66° SE 07:22:52 69° ESE 07:27:57 10° NNE
Cosmos 405 Rocket 3.8 07:24:00 38° NNW 07:24:00 38° NNW 07:26:31 10° N
Cosmos 1943 3.0 07:23:13 69° S 07:23:55 85° ESE 07:29:34 10° NNE
Cosmos 921 Rocket 3.9 07:24:20 39° E 07:24:20 39° E 07:28:05 10° NNE
Cosmos 1898 Rocket 3.6 07:20:50 10° NNW 07:26:04 69° ENE 07:27:17 51° SE
Cosmos 1825 3.2 07:27:43 42° NNW 07:27:43 42° NNW 07:30:26 10° N
Cosmos 1603 3.6 07:28:43 65° SW 07:29:35 83° WNW 07:35:17 10° NNE
Cosmos 1937 Rocket 4.1 07:25:27 10° N 07:30:40 54° ENE 07:33:00 31° SE
Cosmos 2279 Rocket 4.2 07:25:30 10° NNW 07:31:30 51° W 07:32:19 47° WSW
USA 305 3.9 07:32:36 36° ESE 07:32:36 36° ESE 07:35:47 10° ENE
Cosmos 1943 Rocket 2.5 07:26:48 10° NW 07:31:43 47° W 07:31:43 47° W
NPP 3.7 07:30:59 10° NNE 07:36:23 71° ESE 07:37:30 54° SSE
Resurs 1-4 Rocket 2.0 07:36:07 10° N 07:41:27 81° WNW 07:42:25 61° SSW
Cosmos 1076 Rocket 3.6 07:41:45 61° ESE 07:41:58 62° E 07:46:10 10° NNE
Meteor 2-8 Rocket 4.4 07:37:01 10° N 07:43:11 81° E 07:45:34 40° SSE
Cosmos 1814 Rocket 4.2 07:43:19 49° SSE 07:44:24 60° ESE 07:49:30 10° NNE
Cosmos 2151 4.1 07:45:23 32° ESE 07:46:15 36° E 07:50:07 10° NNE
Cosmos 1570 Rocket 4.2 07:45:17 50° SSE 07:46:25 63° ESE 07:51:35 10° NNE
CZ-2D R/B 2.1 07:45:40 10° N 07:50:51 68° WNW 07:51:52 54° SW
Meteor 2-2 Rocket 4.4 07:45:05 10° NNW 07:51:04 67° W 07:52:40 48° SSW
MOZ.5/SAFIR/RUBIN 5/SL-8 4.3 07:51:57 41° W 07:51:57 41° W 07:56:09 10° NNW
SL-16 R/B 4.4 07:49:37 11° W 07:52:18 15° NW 07:55:24 10° NNW
USA 306 2.9 07:53:56 64° SE 07:53:56 64° SE 07:58:06 10° NE
X-37B 2.8 07:53:26 20° NW 07:54:24 23° N 07:57:03 10° NE
Cosmos 2221 2.4 07:51:30 10° NNW 07:55:44 66° W 07:55:44 66° W
NOSS 2-2 (E) 3.2 07:56:15 67° NE 07:56:15 67° NE 07:59:24 10° NE
Meteor 1-29 3.5 07:53:57 10° NNE 07:57:07 52° E 07:57:07 52° E
Cosmos 2208 Rocket 4.3 07:56:29 43° SSE 07:58:07 65° ESE 08:03:31 10° NNE
ADEOS II 2.3 07:53:24 10° NNE 07:58:39 65° ESE 08:00:27 40° SSE
AQUA 3.7 07:54:11 10° NNE 07:58:58 86° WNW 07:59:56 58° SSW
Cosmos 2098 Rocket 4.0 08:00:52 43° SW 08:02:14 52° W 08:07:12 10° N
Nadezhda 4 Rocket 4.4 08:01:44 38° WSW 08:03:24 47° W 08:09:19 10° N
Cosmos 2026 Rocket 4.0 08:02:46 36° S 08:05:33 82° E 08:11:53 10° N
Cosmos 858 Rocket 4.4 08:01:12 10° NNW 08:06:29 75° WSW 08:08:17 42° S
SeaSat 1 3.3 08:03:40 10° NE 08:08:18 40° ESE 08:10:13 28° SSE
NOSS 2-2 (C) 2.9 08:08:55 84° E 08:08:55 84° E 08:12:22 10° NE
Cosmos 1606 2.5 08:07:04 10° NNW 08:10:52 70° W 08:10:56 70° WSW
Cosmos 2369 Rocket 2.5 08:06:42 10° NW 08:12:06 44° WSW 08:13:05 40° SW
Cosmos 1437 Rocket 4.0 08:10:20 10° NNW 08:12:58 28° WNW 08:12:58 28° WNW
SL-16 R/B 2.6 08:11:30 37° SSW 08:13:46 57° WSW 08:19:52 10° NNW
Cosmos 372 Rocket 4.1 08:09:01 10° NNW 08:14:16 76° ENE 08:18:05 19° SSE
USA 290 2.3 08:15:00 75° N 08:15:00 75° N 08:17:59 10° NNE
Cosmos 1242 Rocket 2.8 08:11:36 10° NNW 08:14:48 54° WNW 08:14:48 54° WNW
IDEFIX/ARIANE 42P 3.2 08:12:53 10° NNE 08:17:59 50° E 08:20:56 24° SSE
Cosmos 1656 Rocket 3.6 08:12:36 10° NNW 08:18:14 64° WSW 08:20:53 31° S
Cosmos 2263 4.3 08:14:00 10° NNW 08:19:31 54° WSW 08:21:30 36° SSW
Meteor 1-28 Rocket 3.8 08:18:35 26° SE 08:20:28 54° ENE 08:24:11 10° N
USA 281 4.1 08:15:26 10° SE 08:21:43 51° ENE 08:28:01 10° NNW
CZ-4C R/B 4.0 08:19:33 10° SE 08:22:24 16° ESE 08:25:31 10° ENE
GPS 2-04 Rocket1 3.1 08:23:33 43° SSE 08:23:33 43° SSE 08:27:00 10° E
Cosmos 1437 3.2 08:24:22 10° NNW 08:26:23 41° NNW 08:26:23 41° NNW
Meteor 2-15 Rocket 4.4 08:21:35 10° N 08:27:43 76° W 08:31:32 24° S
ATLAS 5 CENTAUR R/B 1.4 08:29:31 46° WSW 08:30:29 64° NW 08:34:41 10° NNE
DELTA 2 R/B (1) 3.6 08:29:13 23° W 08:32:47 83° N 08:38:21 10° E
Cosmos 1932 4.5 08:30:22 10° NW 08:36:24 56° WSW 08:42:14 11° S
USA 307 3.2 08:34:51 35° WSW 08:36:26 59° NW 08:40:38 10° NE
Cosmos 1633 3.7 08:37:09 26° WNW 08:37:10 26° WNW 08:40:11 10° NNW
Cosmos 1766 Rocket 4.2 08:35:18 20° SSE 08:38:08 53° E 08:42:29 10° NNE
Okean 3 Rocket 4.2 08:36:47 20° SSE 08:39:39 52° E 08:43:55 10° NNE
Landsat 4 4.3 08:36:34 10° N 08:40:09 41° WNW 08:40:58 35° WSW
ADEOS Rocket 3.4 08:35:06 16° S 08:41:21 67° WSW 08:48:16 10° NNW
Aureole 3 Rocket 3.8 08:37:40 10° NNW 08:41:26 38° W 08:42:55 31° SW
Helios 1B rocket 4.0 08:38:31 10° NNW 08:41:34 21° WNW 08:42:26 19° W
Cosmos 2292 Rocket 2.6 08:42:37 53° SSW 08:43:13 73° W 08:46:10 10° N
Cosmos 1151 Rocket 3.9 08:42:31 10° N 08:46:39 48° E 08:50:45 10° SSE
Meteor 2-3 Rocket 3.7 08:44:05 26° SSW 08:47:20 72° W 08:52:54 10° N
IRS-1D 3.8 08:45:14 10° N 08:50:13 52° WNW 08:52:50 26° SW
USA 308 3.6 08:50:01 23° W 08:52:13 44° NW 08:56:18 10° NE
CBERS-1 4.1 08:49:00 10° N 08:54:04 61° WNW 08:57:06 24° SW
Cosmos 1655 Rocket 4.2 08:48:38 12° S 08:54:25 69° E 09:00:37 10° NNE
IKONOS-2 4.4 08:51:23 14° SSE 08:54:58 86° W 08:59:12 10° NNW
Alouette 2 Rocket 3.8 08:55:33 10° N 08:59:06 61° E 09:03:22 10° SSE
CZ-4C R/B 2.9 08:57:27 18° S 08:59:56 80° WSW 09:03:24 10° NNW
Spot 1 4.5 08:54:58 10° SSE 09:00:06 86° ENE 09:05:07 10° NNW
Cosmos 1782 2.8 08:56:44 10° N 09:00:44 83° E 09:04:36 11° S
COSMOS 2441 4.4 08:56:26 10° NNE 09:01:17 79° ESE 09:05:10 16° S
ASTEX 1 3.4 08:57:11 11° S 09:01:59 89° WSW 09:06:57 10° N
IRS-P3 4.1 08:58:39 10° NNE 09:04:00 89° WNW 09:08:21 16° SSW
MSX 3.8 08:59:47 10° NNE 09:05:34 82° WNW 09:10:21 15° SSW
Lacrosse 4 Rocket 1.2 09:03:39 10° NNW 09:07:43 80° WSW 09:11:44 10° SSE
Meteor 1-26 Rocket 4.3 09:02:43 10° NNW 09:08:32 70° W 09:14:28 10° S
USA 305 4.3 09:08:39 13° W 09:11:48 30° NNW 09:15:34 10° NNE
Cosmos 1812 3.4 09:12:00 10° N 09:15:46 53° E 09:19:29 10° SSE
Chandra Rocket (1) 4.3 09:13:16 16° SW 09:17:11 21° S 09:20:41 10° SE
Cosmos 2298 Rocket 4.0 09:11:53 10° NNW 09:17:11 68° WSW 09:22:28 10° S
Cosmos 1933 4.3 09:14:41 10° NNW 09:18:17 30° W 09:20:30 18° SW
Cosmos 1271 Rocket 2.6 09:18:12 10° N 09:21:57 89° E 09:25:42 10° S
Cosmos 2150 Rocket 4.1 09:24:52 10° NNW 09:29:57 55° WSW 09:35:04 10° S
Meteor 2-16 Rocket 4.5 09:24:40 10° SSW 09:30:46 70° W 09:36:54 10° N
X-37B 2.7 09:28:51 10° NW 09:31:39 27° NNE 09:34:26 10° ENE
ERBS 2.3 09:29:30 17° SW 09:31:48 66° NW 09:35:01 10° NE
Centaur AC-125 3.9 09:32:23 10° S 09:33:19 12° SSE 09:34:34 10° SE
ADEOS II 4.0 09:34:46 10° NNW 09:37:45 15° WNW 09:40:43 10° W
CZ-2D R/B 3.5 09:34:04 10° N 09:38:14 65° WNW 09:42:15 10° SSW
CZ-2C R/B 2.5 09:36:12 10° NNE 09:41:11 79° ESE 09:45:58 10° S
Delta 2 Rocket 4.0 09:38:17 13° SW 09:41:14 32° SSE 09:44:27 10° E
Cosmos 1500 Rocket 3.7 09:40:04 10° S 09:44:24 76° E 09:48:43 10° N
SeaSat 1 3.8 09:41:34 10° N 09:45:35 26° NW 09:49:37 10° WSW
Meteor 1-10 Rocket 4.5 09:39:57 10° N 09:45:52 82° E 09:51:37 10° S
Cosmos 1125 Rocket 3.8 09:40:53 10° NNW 09:45:55 48° WSW 09:50:58 10° S
S3M 4.3 09:40:13 10° NNW 09:46:05 48° W 09:52:00 10° SSW
Cosmos 1743 Rocket 3.7 09:43:20 10° S 09:47:41 81° E 09:52:06 10° N
ARIANE 5 R/B 3.1 09:44:24 10° N 09:49:04 40° WNW 09:53:42 10° SW
Cosmos 1862 3.9 09:46:07 10° SSW 09:49:56 42° W 09:53:48 10° N
SL-08 R/B 3.5 09:45:40 10° S 09:50:09 50° W 09:54:43 10° NNW
Cosmos 1328 Rocket 4.2 09:47:56 10° NNW 09:51:55 36° W 09:55:56 10° SSW
Cosmos 2228 Rocket 4.4 09:48:18 10° N 09:52:38 44° E 09:56:53 10° SSE
Cosmos 1656 4.2 09:48:23 10° NNW 09:54:06 69° ENE 09:59:44 10° SSE
Lacrosse 5 rocket 4.1 09:54:00 10° N 09:56:37 18° NE 09:59:16 10° E
IDEFIX/ARIANE 42P 4.2 09:53:32 10° NNW 09:57:08 19° WNW 10:00:44 10° WSW
Cosmos 2084 Rocket 3.4 09:55:04 10° SSW 09:58:58 74° ESE 10:02:56 10° NE
Meteor 2-6 Rocket 4.4 09:53:12 10° NNW 09:58:58 58° W 10:04:35 10° S
NOSS 3-4 (A) 4.5 09:53:56 10° S 09:59:15 40° ESE 10:04:49 10° NE
GPS 2-04 Rocket1 2.7 09:58:43 10° W 10:02:32 60° S 10:06:11 10° ESE
deb Kosmos-1763 4.3 09:59:15 10° SW 10:02:39 48° WNW 10:06:04 10° N
FALCON 9 DEB 3.0 10:00:50 10° NW 10:04:11 63° SW 10:07:31 10° SE
Meteor 1-27 Rocket 4.1 09:58:52 10° N 10:04:27 71° E 10:09:56 10° SSE
USA 281 4.0 10:00:52 10° SSW 10:06:21 28° WSW 10:11:53 10° NW
